Regional Weather Roundup
Issued by NWS Green Bay, WI

Home | Current Version | Previous Version | Graphics & Text | Print | Product List | Glossary Off
Versions: 1 2 3 4 5 6 7 8 9 10 11 12 13 14 15 16 17 18 19 20 21 22 23 24 25 26 27 28 29 30 31 32 33 34 35 36 37 38 39 40 41 42 43 44 45 46 47 48 49 50

000
ASUS43 KGRB 170200
RWRGRB

NORTH-CENTRAL AND NORTHEAST WISCONSIN REGIONAL WEATHER ROUNDUP
NATIONAL WEATHER SERVICE GREEN BAY WI
800 PM CST TUE JAN 16 2018

WIZ005-009-010>012-018-019-170300-
NORTH CENTRAL WISCONSIN

CITY           SKY/WX    TMP DP  RH WIND       PRES   REMARKS
IRONWOOD       FAIR       8   4  83 SW12      30.40F WCI  -7
MANITOWISH WTR NOT AVBL
ARBOR VITAE    NOT AVBL
EAGLE RIVER    FAIR       4   0  86 W3        30.36F
LAND O LAKES   NOT AVBL
RHINELANDER    FAIR       6   3  87 W10       30.38F WCI  -9
PHILLIPS       FAIR       8   5  85 SW5       30.42S WCI   0
ANTIGO         NOT AVBL
TOMAHAWK       NOT AVBL
MERRILL        FAIR      10   6  83 W7        30.44S WCI  -1
$$

WIZ013-073-170300-
NORTHEAST WISCONSIN

CITY           SKY/WX    TMP DP  RH WIND       PRES   REMARKS
IRON MOUNTAIN  FAIR       2  -4  76 CALM      30.37F
MARINETTE      FAIR       7   4  87 CALM      30.47F
$$

WIZ017-030-035>037-045-170300-
CENTRAL WISCONSIN

CITY           SKY/WX    TMP DP  RH WIND       PRES   REMARKS
MEDFORD        NOT AVBL
WAUSAU         FAIR       9   5  84 W8        30.44S WCI  -3
MOSINEE        CLEAR      9   7  92 W9        30.47S WCI  -5
MARSHFIELD     FAIR       5   2  87 W9        30.46F WCI  -9
WISC RAPIDS    FAIR       9   4  80 W7        30.51S WCI  -2
STEVENS POINT  NOT AVBL
WAUPACA        NOT AVBL
SHAWANO        FAIR      16  10  78 CALM      30.47S
CLINTONVILLE   NOT AVBL
WAUTOMA        FAIR      10   6  84 W10       30.51F WCI  -4
$$

WIZ038-039-048-051-170300-
FOX VALLEY

CITY           SKY/WX    TMP DP  RH WIND       PRES   REMARKS
NWS GREEN BAY  FAIR       9   5  84 CALM      30.47F
APPLETON       MOCLDY    14   7  73 W7        30.45F WCI   4
OSHKOSH        CLOUDY    19  11  70 W5        30.48F
FOND DU LAC    CLOUDY    20  10  65 W8        30.49S
$$

WIZ022-050-052-170300-
EAST CENTRAL WISCONSIN

CITY           SKY/WX    TMP DP  RH WIND       PRES   REMARKS
EPHRAIM        NOT AVBL
WASHINGTON ISL NOT AVBL
STURGEON BAY   FAIR      12   9  87 W6        30.47S WCI   3
MANITOWOC      CLOUDY    14  11  87 W8        30.49F WCI   3
SHEBOYGAN      FAIR      10   7  87 W6        30.48F WCI   0
$$

LMZ563-521-522-541>543-170300-
LAKESHORE

STATION/POSITION TIME  TEMP    WIND        PRES    VSBY  WAVE
                       AIR SEA DIR/SP/G                  HT/PER
                 (UTC) (F)     (DEG/KT/KT) (MB)    (MI)  (FT/S)
SHEBOYGAN LKSHOR 0100   18     270/  7/  9 1033.9R
KEWAUNEE LKSHORE 0130   14     300/  4/  5 1031.1F
NORTHPORT PIER   0133   16     260/  3/  9 1030.8F
MENOMINEE LKSHOR 0124   15     250/  5/  7 1031.2
$$




USA.gov is the U.S. government's official web portal to all federal, state and local government web resources and services.